Starlink 2188

operational
NORAD ID: 48563 Int'l Des: 2021-041 Owner: SPXS Country: US Constellation: starlink
LEOCIRCULARSTARLINK_TYPE

Starlink 2188について

説明を読み込み中...

リアルタイム位置

3D地球を読み込み中...

次回通過

高度履歴

Altitude vs Time

uPlot chart will show altitude changes over time

軌道要素

1 48563U 21041L 25259.20842202 .00002740 00000-0 20273-3 0 9997
2 48563 53.0537 194.8969 0001658 91.2125 268.9054 15.06411222238907
Epoch: Sep 16, 2025 • Age: 6 hours

現在のステータス

高度 548.2 km
速度 7.59 km/s
衛星直下点 -0.99°S, 26.82°E
打ち上げ日 May 15, 2021
運用期間 4.3 years
タイプ internet

技術仕様

分類 Payload
質量 260.00 kg
乾燥質量 248.00 kg
総質量 260.00 kg
長さ 0.20 m
直径 2.80 m
スパン 9.00 m
形状 Box + pan
製造者 SPXS
バスタイプ Starlink
フェーズステータス In Orbit
所有者/国 SPXS/US

大規模コンステレーション

Loading constellations...